OPS 4467 B

Satellite information

Favourite Embed

Satellite Type and Status

PAYLOADIN ORBIT

Key statistics

Satellite OPS 4467 B at a glance.

Uptime

22239

Days in orbit

Revolutions

≈ 14.2

Per day

Orbit

SSO

Sun Synchronous Orbit

Inclination

99.8

Latest

Satellite identification and parameters

Extended collection of information and parameters for OPS 4467 B.

Object identification

Identified? True

Debris? False

Object name: OPS 4467 B

International designator: 1964-031B

Object number (NORAD): 813

Object ID (CCSDS): 813

Country: UNITED STATES OF AMERICA (US)

Current information (Y/N): Y

RCS size: MEDIUM

Orbital parameters

Period: 101.153 minutes

Inclination: 99.7809 deg

SMA: 7191.38 km

Apoapsis: 816.656 km

Periapsis: 809.835 km

RAAN: 229.726 deg

Eccentricy: 0.0004742

Argument of periapsis: 224.5463 deg

Mean anomaly: 135.5331 deg

Mean motion: 14.23588179 rev/day

Mean motion (dot): 0.0000011 rev/day2

B* drag term: 0.000071573 1/REarth

Two-line elements (TLE)

Creation date: May 8, 2025, 3:01 a.m.

Reference frame: TEME

Reference center: EARTH

Epoch: May 7, 2025, 8:16 p.m. UTC

TLE line 0: 0 OPS 4467 B

TLE line 1: 1 00813U 64031B 25127.84475093 .00000110 00000-0 71573-4 0 9992

TLE line 2: 2 00813 99.7809 229.7260 0004742 224.5463 135.5331 14.23588179157256

Live tracking on map

Real-time ground track for satellite OPS 4467 B.

In-orbit conjunctions

There are no conjunctions computed for OPS 4467 B, at the moment. Check back to stay up to date, as we update our databases every day.

Go to all conjunctions

Associated space launch

The DSAP-1 (Defense Satellite Application Program Block 1) satellites series, also known as P-35, was the first series of military meteorologal satellites of the USA.

OPS 4467 B was lifted into orbit during the mission ‘Thor SLV-2 Agena D | DSAP-1 F8 & F9’, on board a Thor SLV-2 Agena D space rocket.

The launch took place on June 18, 1964, 4:56 a.m. from Space Launch Complex 1W.

For more information about the launch, click the button.

Launch to space Thor SLV-2 Agena D | DSAP-1 F8 & F9
Thor SLV-2 Agena D | DSAP-1 F8 & F9

Agency: N/A

Status: Launch Successful

Launch date: June 18, 1964, 4:56 a.m. UTC

Rocket: Thor SLV-2 Agena D

Launch pad: Space Launch Complex 1W

Location: Vandenberg SFB, CA, USA

...

Latest news about this satellite

There are no fresh news available about this satellite. Check back as we update our databases every day.


Newsletter sign-up

Weekly statistics, charts and insights to help you stay on top of the space industry.